User: anonymous   Login
Location: Freistadt
(48.5112°N, 14.5013°E)
Time: 11:43:05
(UTC+02:00)
Language:

BEIJING 3B - Orbit

View from above orbital plane
View from above orbital plane
View from above satellite
View from above satellite

Ground track
Ground track

The orbit data is extracted from the following two-line orbital elements,

1 53587U 22103A   24146.82037374  .00003103  00000-0  34814-3 0  9997
2 53587  97.8687 222.8730 0013373 359.4707   0.6492 14.87464647 95254
Epoch (UTC): 25 May 2024 19:41:20
Eccentricity: 0.0013373
inclination: 97.8687°
perigee height: 596 km
apogee height: 615 km
right ascension of ascending node: 222.8730°
argument of perigee: 359.4707°
revolutions per day: 14.87464647
mean anomaly at epoch: 0.6492°
orbit number at epoch: 9525

The dashed part of the orbit path shows where the satellite is in the earth's shadow,  

DLR